Time,TemperatureF,DewpointF,PressureIn,WindDirection,WindDirectionDegrees,WindSpeedMPH,WindSpeedGustMPH,Humidity,HourlyPrecipIn,Conditions,Clouds,dailyrainin,SoftwareType,DateUTC
2015-07-31 00:08:00,84.0,76.4,29.87,SE,135,0.0,-999.0,78,-99.99,,,0.00,Acu-Link.com,2015-07-31 04:08:00,
2015-07-31 00:23:00,84.7,77.1,29.87,SW,225,0.0,-999.0,78,-99.99,,,0.00,Acu-Link.com,2015-07-31 04:23:00,
2015-07-31 00:38:00,84.7,77.1,29.87,South,180,0.0,-999.0,78,-99.99,,,0.00,Acu-Link.com,2015-07-31 04:38:00,
2015-07-31 00:53:00,84.7,77.1,29.86,SSE,157,0.0,-999.0,78,-99.99,,,0.00,Acu-Link.com,2015-07-31 04:53:00,
2015-07-31 01:08:00,84.9,77.3,29.86,SW,225,0.0,-999.0,78,-99.99,,,0.00,Acu-Link.com,2015-07-31 05:08:00,
2015-07-31 01:23:00,85.3,77.6,29.86,South,180,1.1,-999.0,78,-99.99,,,0.00,Acu-Link.com,2015-07-31 05:23:00,
2015-07-31 01:39:00,85.3,77.6,29.85,SSW,202,1.1,-999.0,78,-99.99,,,0.00,Acu-Link.com,2015-07-31 05:39:00,
2015-07-31 01:54:00,85.3,77.6,29.85,SW,225,1.7,-999.0,78,-99.99,,,0.00,Acu-Link.com,2015-07-31 05:54:00,
2015-07-31 02:09:00,85.5,77.8,29.85,South,180,1.1,-999.0,78,-99.99,,,0.00,Acu-Link.com,2015-07-31 06:09:00,
2015-07-31 02:24:00,85.5,77.8,29.84,West,270,0.0,-999.0,78,-99.99,,,0.00,Acu-Link.com,2015-07-31 06:24:00,
2015-07-31 02:39:00,85.1,77.4,29.84,South,180,0.0,-999.0,78,-99.99,,,0.00,Acu-Link.com,2015-07-31 06:39:00,
2015-07-31 02:54:00,85.3,77.6,29.83,SSW,202,0.0,-999.0,78,-99.99,,,0.00,Acu-Link.com,2015-07-31 06:54:00,
2015-07-31 03:09:00,85.1,77.4,29.83,SSW,202,0.0,-999.0,78,-99.99,,,0.00,Acu-Link.com,2015-07-31 07:09:00,
2015-07-31 03:24:00,85.5,77.8,29.83,SSW,202,0.0,-999.0,78,-99.99,,,0.00,Acu-Link.com,2015-07-31 07:24:00,
2015-07-31 03:39:00,86.4,78.7,29.84,SSW,202,0.0,-999.0,78,-99.99,,,0.00,Acu-Link.com,2015-07-31 07:39:00,
2015-07-31 03:55:00,86.4,78.7,29.84,South,180,0.0,-999.0,78,-99.99,,,0.00,Acu-Link.com,2015-07-31 07:55:00,
2015-07-31 04:10:00,86.2,78.5,29.84,SSW,202,0.0,-999.0,78,-99.99,,,0.00,Acu-Link.com,2015-07-31 08:10:00,
2015-07-31 04:25:00,86.4,78.7,29.84,South,180,0.0,-999.0,78,-99.99,,,0.00,Acu-Link.com,2015-07-31 08:25:00,
2015-07-31 04:40:00,86.7,79.0,29.84,SSW,202,0.0,-999.0,78,-99.99,,,0.00,Acu-Link.com,2015-07-31 08:40:00,
2015-07-31 04:55:00,86.7,79.0,29.84,South,180,0.0,-999.0,78,-99.99,,,0.00,Acu-Link.com,2015-07-31 08:55:00,
2015-07-31 05:10:00,86.9,79.2,29.85,SSW,202,0.0,-999.0,78,-99.99,,,0.00,Acu-Link.com,2015-07-31 09:10:00,
2015-07-31 05:25:00,87.1,79.4,29.85,SSW,202,0.0,-999.0,78,-99.99,,,0.00,Acu-Link.com,2015-07-31 09:25:00,
2015-07-31 05:40:00,87.6,79.9,29.84,ESE,112,0.0,-999.0,78,-99.99,,,0.00,Acu-Link.com,2015-07-31 09:40:00,
2015-07-31 05:55:00,87.4,79.7,29.85,SSW,202,0.0,-999.0,78,-99.99,,,0.00,Acu-Link.com,2015-07-31 09:55:00,
2015-07-31 06:11:00,87.3,79.6,29.84,SW,225,1.1,-999.0,78,-99.99,,,0.00,Acu-Link.com,2015-07-31 10:11:00,
2015-07-31 06:26:00,87.3,79.6,29.85,SW,225,0.0,-999.0,78,-99.99,,,0.00,Acu-Link.com,2015-07-31 10:26:00,
2015-07-31 06:41:00,87.3,79.6,29.84,South,180,0.0,-999.0,78,-99.99,,,0.00,Acu-Link.com,2015-07-31 10:41:00,
2015-07-31 06:56:00,86.9,79.2,29.84,South,180,0.0,-999.0,78,-99.99,,,0.00,Acu-Link.com,2015-07-31 10:56:00,
2015-07-31 07:11:00,87.1,79.4,29.85,SSW,202,0.0,-999.0,78,-99.99,,,0.00,Acu-Link.com,2015-07-31 11:11:00,
2015-07-31 07:26:00,88.3,80.5,29.86,West,270,0.0,-999.0,78,-99.99,,,0.00,Acu-Link.com,2015-07-31 11:26:00,
2015-07-31 07:41:00,88.7,80.9,29.86,SSW,202,2.2,-999.0,78,-99.99,,,0.00,Acu-Link.com,2015-07-31 11:41:00,
2015-07-31 07:56:00,89.2,81.4,29.86,South,180,2.2,-999.0,78,-99.99,,,0.00,Acu-Link.com,2015-07-31 11:56:00,
2015-07-31 08:11:00,90.0,82.2,29.87,SSW,202,1.7,-999.0,78,-99.99,,,0.00,Acu-Link.com,2015-07-31 12:11:00,
2015-07-31 08:27:00,90.5,82.7,29.87,SSE,157,2.7,-999.0,78,-99.99,,,0.00,Acu-Link.com,2015-07-31 12:27:00,
2015-07-31 08:42:00,90.1,82.3,29.88,SW,225,2.2,-999.0,78,-99.99,,,0.00,Acu-Link.com,2015-07-31 12:42:00,
2015-07-31 08:57:00,90.5,82.7,29.88,South,180,1.7,-999.0,78,-99.99,,,0.00,Acu-Link.com,2015-07-31 12:57:00,
2015-07-31 09:12:00,90.1,82.3,29.88,SSW,202,0.0,-999.0,78,-99.99,,,0.00,Acu-Link.com,2015-07-31 13:12:00,
2015-07-31 09:27:00,89.8,82.0,29.89,SE,135,2.2,-999.0,78,-99.99,,,0.00,Acu-Link.com,2015-07-31 13:27:00,
2015-07-31 09:43:00,90.1,82.3,29.88,West,270,2.7,-999.0,78,-99.99,,,0.00,Acu-Link.com,2015-07-31 13:43:00,
2015-07-31 09:58:00,88.9,81.1,29.89,WSW,247,1.7,-999.0,78,-99.99,,,0.00,Acu-Link.com,2015-07-31 13:58:00,